SCP
0 0 0 0 0 0 0 0 0 0 0 0 0 0 0 0 0 0 0 0 0 0 0 0 0 0 0 0 0 0 0 0 0 0 0 0 0 0 0 0 0 0 0 0
0 0 0 0 0 0 0 0 0 0 0 0 0 0 0 0 0 0 0 0 0 0 0 0 0 0 0 0 0 0 0 0 0 0 0 0 0 0 0 0 0 0 0 0
0 0 0 0 0 0 0 0 0 0 0 0 0 0 0 0 0 0 0 0 0 0 0 0 0 0 0 0 0 0 0 0 0 0 0 0 0 0 0 0 0 0 0 0
0 0 0 0 0 0 0 0 0 0 0 0 0 0 0 0 0 0 0 0 0 0 0 0 0 0 0 0 0 0 0 0 0 0 0 0 0 0 0 0 0 0 0 0
0 0 0 0 0 0 0 0 0 0 0 0 0 0 0 0 0 0 0 0 -0 0 0 0 0 0 0 0 0 0 0 0 0 0 0 0 0 0 0 0 0 0 0 0
0 0 0 0 0 0 0 0 0 0 0 0 0 0 0 0 0 0 0 0 0 0 0 0 0 0 0 0 0 0 0 0 0 0 0 0 0 0 0 0 0 0 0 0
0 0 0 0 0 0 0 0 0 0 0 0 0 0 0 0 0 0 0 0 0 0 0 0 0 0 0 0 0 0 0 0 0 0 0 0 0 0 0 0 0 0 0 0
0 0 0 0 0 0 0 0 0 0 -0 0 0 -0 0 0 0 0 0 0 0 0 0 0 0 0 0 0 0 0 0 0 0 0 0 0 0 0 0 0 0 0 0 0
0 0 0 -0 0 -0 -0 -0 -0 -0 -0 -0 -0 -0 0 -0 -0 0 0 0 0 0 0 0 0 0 0 0 0 0 0 0 0 0 0 0 0 0 0 0 0 0 0 0
-0 -0 -0 -0 -0 -0 -0 -0 -0 -0 -0 -0 -0 -0 -0 -0 -0 -0 -0 -0 -0 0 0 0 0 0 0 0 0 0 0 0 0 0 0 0 0 0 0 0 0 0 0 0
0 -0 -0 -0 -0 -0 -0 -0 -0 -0 -0 -0 -0 -0 -0 -0 -0 -0 -0 -0 -0 -0 -0 0 0 0 0 0 0 0 0 0 0 0 0 0 0 0 0 0 0 0 0 0
0 0 0 -0 -0 -0 -0 -0 -0 -0 -0 -0 -0 -0 -0 -0 -0 -0 -0 -0 -0 -0 0 0 0 0 0 0 0 0 0 0 0 0 0 0 0 0 0 0 0 0 0 0
0 0 0 -0 -0 -0 -0 -0 -0 -0 -0 -0 -0 -0 0 -0 0 0 0 0 0 0 0 0 0 0 0 0 0 0 0 0 0 0 0 0 0 0 0 0 0 0 0 0
0 0 0 0 0 0 -0 -0 -0 -0 -0 -0 -0 -0 -0 -0 -0 0 0 0 0 0 0 0 0 0 0 0 0 0 0 0 0 0 0 0 0 0 0 0 0 0 0 0
0 0 0 0 0 0 0 -0 -0 -0 -0 -0 -0 -0 -0 -0 -0 -0 0 0 0 0 0 0 0 0 0 0 0 0 0 0 0 0 0 0 0 0 0 0 0 0 0 0
0 0 0 0 0 0 0 -0 -0 -0 -0 0 -0 -0 -0 -0 -0 0 0 0 0 0 0 0 0 0 0 0 0 0 0 0 0 0 0 0 0 0 0 0 0 0 0 0
0 0 0 0 0 0 0 0 0 0 -0 -0 -0 -0 -0 -0 -0 0 0 0 0 0 0 0 0 0 0 0 0 0 0 0 0 0 0 0 0 0 0 0 0 0 0 0
0 0 0 0 0 0 0 0 0 0 -0 -0 -0 -0 -0 -0 -0 0 0 0 0 0 0 0 0 0 0 0 0 0 0 0 0 0 0 0 0 0 0 0 0 0 0 0
0 0 0 0 0 0 0 -0 -0 0 0 -0 -0 -0 -0 -0 0 -0 -0 -0 0 0 0 0 0 0 0 0 0 0 0 0 0 0 0 0 0 0 0 0 0 0 0 0
0 0 0 0 0 0 0 0 0 0 0 -0 -0 -0 -0 0 0 -0 0 0 0 0 0 0 0 0 0 0 0 0 0 0 0 0 0 0 0 0 0 0 0 0 0 0
0 -0 -0 -0 0 -0 -0 -0 -0 -0 -0 -0 -0 -0 0 0 -0 0 0 0 0 0 0 0 0 0 0 0 0 0 0 0 0 0 0 0 0 0 0 0 0 0 0 0
-0 -0 -0 -0 -0 -0 -0 -0 -0 -0 0 -0 -0 -0 0 0 0 0 0 0 0 0 0 0 0 0 0 0 0 0 0 0 0 0 0 0 0 0 0 0 0 0 0 0
-0 -0 -0 -0 -0 0 -0 0 0 0 0 0 0 0 -0 -0 -0 -0 0 0 0 0 0 0 0 0 0 0 0 0 0 0 0 0 0 0 0 0 0 0 0 0 0 0
-0 0 0 0 0 -0 -0 -0 -0 0 0 0 0 0 -0 -0 -0 -0 -0 -0 0 -0 0 -0 -0 -0 0 0 0 0 0 0 0 0 0 0 0 0 0 0 0 0 0 0
0 0 0 -0 -0 -0 -0 -0 0 0 0 0 -0 -0 -0 -0 -0 -0 -0 -0 -0 -0 -0 -0 0 0 0 0 0 0 0 0 0 -0 0 0 0 0 0 0 0 0 0 0
-0 0 0 -0 0 0 0 0 -0 -0 -0 -0 -0 -0 -0 -0 -0 -0 -0 -0 -0 -0 0 0 0 0 0 0 0 0 0 -0 -0 0 0 0 0 0 0 0 0 0 0 0
0 0 0 0 0 0 0 0 0 0 0 -0 -0 0 0 0 -0 -0 -0 -0 -0 -0 -0 0 0 0 0 0 -0 -0 -0 0 0 0 0 0 0 0 0 0 0 0 0 0
Wind_Speed_500mb
51 54 60 57 51 51 42 43 37 55 51 47 61 58 52 77 78 68 60 52 50 65 71 74 80 82 88 92 95 95 97 97 100 99 99 102 100 89 83 84 86 84 79 75
43 54 62 61 64 65 68 66 52 64 63 65 64 90 75 100 92 64 67 78 82 77 72 81 89 92 97 100 98 96 99 98 98 98 99 102 96 91 86 86 88 88 84 79
51 39 46 47 65 74 59 49 48 56 70 72 69 62 65 87 92 67 77 83 83 85 79 74 76 81 87 86 89 103 99 97 96 94 98 98 93 91 88 91 89 92 86 77
26 32 46 22 33 56 67 66 64 71 68 62 56 74 79 85 74 87 99 89 86 76 84 89 81 69 68 78 83 91 91 93 93 93 94 93 91 90 89 89 92 95 87 77
30 34 39 19 14 38 39 61 51 53 54 46 58 69 59 53 53 47 60 74 83 94 96 79 67 60 61 67 73 78 81 88 92 90 91 93 92 91 90 92 96 97 83 75
44 52 65 50 16 28 41 41 41 31 40 33 35 9 9 68 80 80 67 70 73 60 59 61 49 42 53 61 66 72 72 80 84 88 91 92 91 93 92 89 95 91 81 72
42 33 17 20 41 35 18 16 52 36 40 48 30 24 55 79 89 87 86 87 80 74 60 48 47 42 45 53 60 69 72 74 80 83 86 86 89 92 91 93 100 92 81 70
14 30 50 43 22 20 29 49 41 52 53 51 42 53 59 68 77 81 84 86 80 77 69 60 56 44 40 47 55 66 66 69 75 80 84 87 86 93 91 99 101 90 80 66
10 16 44 29 46 33 24 20 35 48 59 49 61 64 60 61 63 76 77 72 67 68 69 73 70 62 58 53 49 54 60 63 69 76 80 83 86 93 94 104 101 90 78 65
24 18 39 63 54 44 59 58 57 52 70 60 57 58 75 74 71 74 86 78 76 70 73 82 68 70 71 69 61 53 54 62 67 72 76 79 84 91 96 108 100 91 78 71
25 32 36 39 41 49 54 46 59 70 58 60 60 66 66 73 77 71 76 73 71 84 77 89 77 62 68 76 80 74 72 72 72 76 79 82 88 97 106 106 93 78 74 59
31 46 24 48 56 45 28 43 48 51 74 79 72 75 71 68 76 74 72 71 71 75 80 75 78 62 59 70 81 88 77 75 82 86 89 92 96 102 104 102 90 79 60 62
28 44 45 54 54 45 63 67 66 63 55 57 59 56 74 76 93 100 100 90 75 68 71 72 68 73 55 70 68 81 88 81 86 93 88 91 96 106 110 91 84 78 69 63
44 43 39 33 32 76 60 69 86 93 92 83 77 63 65 71 89 93 98 91 91 92 93 91 85 94 83 72 76 80 91 87 90 95 92 89 95 104 103 97 82 65 60 60
21 23 30 52 61 67 73 69 87 99 99 105 101 82 75 83 89 100 100 95 91 88 90 84 81 87 80 83 82 82 90 87 91 91 87 87 96 101 100 91 84 80 68 54
37 40 38 36 66 73 66 76 69 90 89 94 98 100 99 88 99 101 97 86 79 90 86 81 78 73 72 72 73 79 79 82 85 85 79 89 101 107 99 91 85 76 72 64
41 38 60 78 66 86 79 71 67 79 90 88 96 99 97 100 99 95 87 83 82 90 92 87 79 64 74 76 74 74 76 78 77 74 73 81 96 107 99 87 71 70 64 57
38 48 53 59 73 81 96 87 81 77 82 88 91 92 89 87 89 93 88 84 86 81 68 69 68 60 66 61 58 64 67 70 73 79 83 89 101 101 89 75 71 68 62 55
55 62 63 60 68 78 82 81 82 82 81 85 84 85 85 84 79 77 78 75 67 58 45 36 33 30 33 38 47 55 62 68 76 78 83 97 97 84 75 70 68 64 62 55
71 70 70 74 72 67 78 79 79 80 80 75 75 74 75 69 62 65 61 55 47 39 24 14 13 11 23 40 51 53 60 67 73 81 84 85 82 76 71 68 67 62 57 48
76 76 75 69 72 71 69 72 74 76 68 61 68 64 60 59 51 48 39 30 25 19 10 6 8 21 31 39 49 48 57 64 67 74 81 81 74 70 70 67 62 58 53 47
73 73 73 72 70 70 67 64 57 52 55 56 54 48 42 39 33 24 19 15 14 11 4 3 10 20 26 30 40 43 50 56 70 77 75 71 68 70 66 61 57 53 49 44
66 65 63 61 63 65 58 47 41 41 42 43 38 32 25 24 20 20 24 24 20 16 13 16 14 17 21 27 35 42 54 64 67 64 61 60 58 55 54 52 50 45 41 36
59 54 52 52 52 48 48 41 35 32 31 29 26 21 20 22 31 30 27 27 30 29 29 24 20 21 28 41 50 54 53 52 52 53 52 50 48 47 45 43 41 36 33 30
43 44 45 44 43 42 38 32 28 27 24 25 28 30 29 28 33 27 28 29 26 31 36 33 36 41 46 48 49 48 46 45 44 43 43 42 40 38 36 33 30 27 24 22
37 35 34 29 33 32 29 24 25 24 23 24 26 26 28 28 27 30 34 39 47 47 49 48 46 46 47 46 45 44 42 39 38 36 34 32 30 28 26 23 21 20 19 18
33 29 30 31 29 28 24 22 25 27 23 28 31 31 33 35 38 41 44 47 47 48 50 51 49 46 45 43 41 40 38 36 33 30 28 25 23 21 19 19 18 17 16 16
Wind_Direction_500mb
231 236 252 261 254 252 250 249 246 257 257 253 258 274 273 277 273 272 275 263 257 271 273 272 269 266 260 255 250 248 245 242 241 241 241 240 238 235 232 230 229 227 225 227
234 227 226 237 246 249 252 248 250 254 258 256 261 266 271 270 271 285 281 273 267 268 273 272 269 266 265 259 256 251 244 244 241 239 238 238 236 232 229 228 226 224 224 226
249 227 232 239 236 240 247 250 241 247 246 250 258 260 259 273 282 282 275 269 271 274 272 270 273 273 267 262 257 248 243 241 239 239 236 235 233 229 226 225 223 222 222 225
265 264 241 222 208 226 241 245 250 253 258 260 258 269 272 275 278 285 282 284 279 279 282 290 295 286 267 258 252 244 240 240 238 235 234 233 230 227 225 224 222 220 219 224
262 254 271 265 227 227 234 251 267 290 278 280 292 284 274 313 334 324 322 309 301 296 294 293 291 284 263 251 246 240 238 239 238 234 233 231 228 226 224 222 218 217 217 221
259 261 266 276 347 328 262 257 2 2 359 1 347 332 10 346 341 339 348 352 349 329 307 300 296 292 271 251 239 238 240 239 236 234 233 232 229 225 222 219 218 216 216 218
253 255 256 10 10 320 241 337 316 6 6 357 344 334 318 323 323 322 328 331 334 332 337 329 319 303 281 259 255 247 238 238 235 234 233 231 227 224 220 214 212 212 213 215
310 264 266 24 17 14 299 304 341 335 332 325 308 304 306 308 309 311 320 323 326 321 324 322 331 320 295 272 263 252 244 240 237 235 231 228 226 223 218 212 209 208 209 210
320 318 314 301 316 314 302 309 319 319 323 331 318 310 309 318 320 315 314 319 319 319 312 310 317 315 310 298 279 262 252 245 241 237 232 229 225 221 214 210 207 205 207 211
320 286 299 304 316 335 339 335 327 324 321 317 308 311 308 304 302 300 301 311 309 308 305 300 297 302 297 290 280 274 265 255 246 238 235 231 225 222 215 210 205 203 204 209
273 280 286 291 307 324 324 314 318 318 320 313 311 305 303 303 301 302 301 299 299 296 295 296 295 288 286 282 271 257 253 252 250 240 236 229 225 221 211 212 210 211 211 214
276 292 300 300 314 326 312 321 321 316 313 315 314 310 312 304 303 303 299 299 297 291 290 290 294 288 281 276 271 261 251 247 241 235 226 223 219 212 209 207 206 207 211 218
281 289 292 298 301 307 320 323 320 314 306 298 300 302 305 305 308 309 306 305 300 294 289 290 287 284 280 275 267 263 259 253 246 240 231 220 214 205 198 193 197 199 205 203
283 291 293 289 302 310 319 316 317 316 317 315 312 309 307 304 306 305 305 306 304 298 289 284 275 278 275 272 270 262 255 252 247 242 232 220 211 201 198 183 175 175 186 191
257 282 287 297 302 307 314 318 318 317 318 316 316 312 313 310 305 305 307 308 307 301 293 292 286 273 276 274 267 260 250 243 241 235 227 218 204 194 193 194 191 187 176 172
296 304 310 304 309 311 313 316 313 309 309 308 308 311 312 306 304 307 309 312 307 303 300 296 287 280 280 275 265 249 241 237 233 228 216 201 193 194 195 195 194 188 184 183
332 330 324 316 314 313 313 308 302 298 300 301 303 308 309 309 308 309 311 311 302 297 296 290 289 282 277 268 252 241 230 224 217 210 206 191 191 193 195 193 189 185 183 182
313 306 306 303 304 305 308 306 303 299 297 301 303 305 305 306 304 307 311 311 309 310 308 286 285 280 265 249 233 224 219 211 203 198 194 192 193 194 190 184 183 182 178 177
320 317 316 307 308 305 302 300 300 302 302 304 305 305 306 302 310 307 307 310 315 319 324 316 300 281 253 232 221 215 205 197 191 192 192 191 189 183 178 177 179 180 179 181
322 322 320 318 317 307 304 306 306 306 310 312 313 307 307 315 306 306 312 311 315 324 336 311 294 234 200 195 205 198 192 189 187 187 187 181 176 169 170 177 178 177 180 180
324 324 324 319 314 317 315 315 312 308 315 317 312 313 311 313 315 319 322 329 338 339 316 246 195 175 180 185 188 184 183 182 184 182 173 167 164 166 171 173 174 175 176 180
326 325 324 324 325 320 320 319 319 321 323 318 317 319 321 327 330 346 3 10 356 345 353 93 142 164 170 180 182 179 177 176 171 165 161 161 164 168 168 169 172 173 176 182
325 324 325 328 326 319 326 333 333 333 326 327 330 338 338 357 9 26 34 26 23 34 71 101 125 151 158 159 163 163 161 160 159 157 156 159 162 164 165 167 171 175 178 184
325 328 329 332 328 331 335 344 346 341 341 356 5 9 25 52 59 53 60 72 84 88 93 101 118 131 142 142 142 142 145 147 146 147 150 153 155 159 163 169 172 174 182 191
331 335 337 336 337 340 346 351 359 10 26 44 57 69 77 81 90 98 97 95 96 91 92 96 104 114 116 119 121 120 126 133 136 141 146 147 151 157 163 167 172 180 192 207
348 344 345 348 351 353 0 9 25 33 53 60 63 66 69 76 84 86 86 88 93 93 94 97 101 104 105 107 113 119 123 125 129 132 135 139 146 154 162 170 181 195 210 225
10 10 10 16 18 19 26 37 50 49 57 72 75 75 77 80 83 88 92 95 93 91 90 89 90 93 98 104 108 111 115 117 119 123 130 137 146 159 172 186 200 213 228 243
Wind_Speed_850mb
51 54 60 57 51 51 42 43 37 55 51 47 61 58 52 77 78 68 60 52 50 65 71 74 80 82 88 92 95 95 97 97 100 99 99 102 100 89 83 84 86 84 79 75
43 54 62 61 64 65 68 66 52 64 63 65 64 90 75 100 92 64 67 78 82 77 72 81 89 92 97 100 98 96 99 98 98 98 99 102 96 91 86 86 88 88 84 79
51 39 46 47 65 74 59 49 48 56 70 72 69 62 65 87 92 67 77 83 83 85 79 74 76 81 87 86 89 103 99 97 96 94 98 98 93 91 88 91 89 92 86 77
26 32 46 22 33 56 67 66 64 71 68 62 56 74 79 85 74 87 99 89 86 76 84 89 81 69 68 78 83 91 91 93 93 93 94 93 91 90 89 89 92 95 87 77
30 34 39 19 14 38 39 61 51 53 54 46 58 69 59 53 53 47 60 74 83 94 96 79 67 60 61 67 73 78 81 88 92 90 91 93 92 91 90 92 96 97 83 75
44 52 65 50 16 28 41 41 41 31 40 33 35 9 9 68 80 80 67 70 73 60 59 61 49 42 53 61 66 72 72 80 84 88 91 92 91 93 92 89 95 91 81 72
42 33 17 20 41 35 18 16 52 36 40 48 30 24 55 79 89 87 86 87 80 74 60 48 47 42 45 53 60 69 72 74 80 83 86 86 89 92 91 93 100 92 81 70
14 30 50 43 22 20 29 49 41 52 53 51 42 53 59 68 77 81 84 86 80 77 69 60 56 44 40 47 55 66 66 69 75 80 84 87 86 93 91 99 101 90 80 66
10 16 44 29 46 33 24 20 35 48 59 49 61 64 60 61 63 76 77 72 67 68 69 73 70 62 58 53 49 54 60 63 69 76 80 83 86 93 94 104 101 90 78 65
24 18 39 63 54 44 59 58 57 52 70 60 57 58 75 74 71 74 86 78 76 70 73 82 68 70 71 69 61 53 54 62 67 72 76 79 84 91 96 108 100 91 78 71
25 32 36 39 41 49 54 46 59 70 58 60 60 66 66 73 77 71 76 73 71 84 77 89 77 62 68 76 80 74 72 72 72 76 79 82 88 97 106 106 93 78 74 59
31 46 24 48 56 45 28 43 48 51 74 79 72 75 71 68 76 74 72 71 71 75 80 75 78 62 59 70 81 88 77 75 82 86 89 92 96 102 104 102 90 79 60 62
28 44 45 54 54 45 63 67 66 63 55 57 59 56 74 76 93 100 100 90 75 68 71 72 68 73 55 70 68 81 88 81 86 93 88 91 96 106 110 91 84 78 69 63
44 43 39 33 32 76 60 69 86 93 92 83 77 63 65 71 89 93 98 91 91 92 93 91 85 94 83 72 76 80 91 87 90 95 92 89 95 104 103 97 82 65 60 60
21 23 30 52 61 67 73 69 87 99 99 105 101 82 75 83 89 100 100 95 91 88 90 84 81 87 80 83 82 82 90 87 91 91 87 87 96 101 100 91 84 80 68 54
37 40 38 36 66 73 66 76 69 90 89 94 98 100 99 88 99 101 97 86 79 90 86 81 78 73 72 72 73 79 79 82 85 85 79 89 101 107 99 91 85 76 72 64
41 38 60 78 66 86 79 71 67 79 90 88 96 99 97 100 99 95 87 83 82 90 92 87 79 64 74 76 74 74 76 78 77 74 73 81 96 107 99 87 71 70 64 57
38 48 53 59 73 81 96 87 81 77 82 88 91 92 89 87 89 93 88 84 86 81 68 69 68 60 66 61 58 64 67 70 73 79 83 89 101 101 89 75 71 68 62 55
55 62 63 60 68 78 82 81 82 82 81 85 84 85 85 84 79 77 78 75 67 58 45 36 33 30 33 38 47 55 62 68 76 78 83 97 97 84 75 70 68 64 62 55
71 70 70 74 72 67 78 79 79 80 80 75 75 74 75 69 62 65 61 55 47 39 24 14 13 11 23 40 51 53 60 67 73 81 84 85 82 76 71 68 67 62 57 48
76 76 75 69 72 71 69 72 74 76 68 61 68 64 60 59 51 48 39 30 25 19 10 6 8 21 31 39 49 48 57 64 67 74 81 81 74 70 70 67 62 58 53 47
73 73 73 72 70 70 67 64 57 52 55 56 54 48 42 39 33 24 19 15 14 11 4 3 10 20 26 30 40 43 50 56 70 77 75 71 68 70 66 61 57 53 49 44
66 65 63 61 63 65 58 47 41 41 42 43 38 32 25 24 20 20 24 24 20 16 13 16 14 17 21 27 35 42 54 64 67 64 61 60 58 55 54 52 50 45 41 36
59 54 52 52 52 48 48 41 35 32 31 29 26 21 20 22 31 30 27 27 30 29 29 24 20 21 28 41 50 54 53 52 52 53 52 50 48 47 45 43 41 36 33 30
43 44 45 44 43 42 38 32 28 27 24 25 28 30 29 28 33 27 28 29 26 31 36 33 36 41 46 48 49 48 46 45 44 43 43 42 40 38 36 33 30 27 24 22
37 35 34 29 33 32 29 24 25 24 23 24 26 26 28 28 27 30 34 39 47 47 49 48 46 46 47 46 45 44 42 39 38 36 34 32 30 28 26 23 21 20 19 18
33 29 30 31 29 28 24 22 25 27 23 28 31 31 33 35 38 41 44 47 47 48 50 51 49 46 45 43 41 40 38 36 33 30 28 25 23 21 19 19 18 17 16 16
Wind_Direction_850mb
231 236 252 261 254 252 250 249 246 257 257 253 258 274 273 277 273 272 275 263 257 271 273 272 269 266 260 255 250 248 245 242 241 241 241 240 238 235 232 230 229 227 225 227
234 227 226 237 246 249 252 248 250 254 258 256 261 266 271 270 271 285 281 273 267 268 273 272 269 266 265 259 256 251 244 244 241 239 238 238 236 232 229 228 226 224 224 226
249 227 232 239 236 240 247 250 241 247 246 250 258 260 259 273 282 282 275 269 271 274 272 270 273 273 267 262 257 248 243 241 239 239 236 235 233 229 226 225 223 222 222 225
265 264 241 222 208 226 241 245 250 253 258 260 258 269 272 275 278 285 282 284 279 279 282 290 295 286 267 258 252 244 240 240 238 235 234 233 230 227 225 224 222 220 219 224
262 254 271 265 227 227 234 251 267 290 278 280 292 284 274 313 334 324 322 309 301 296 294 293 291 284 263 251 246 240 238 239 238 234 233 231 228 226 224 222 218 217 217 221
259 261 266 276 347 328 262 257 2 2 359 1 347 332 10 346 341 339 348 352 349 329 307 300 296 292 271 251 239 238 240 239 236 234 233 232 229 225 222 219 218 216 216 218
253 255 256 10 10 320 241 337 316 6 6 357 344 334 318 323 323 322 328 331 334 332 337 329 319 303 281 259 255 247 238 238 235 234 233 231 227 224 220 214 212 212 213 215
310 264 266 24 17 14 299 304 341 335 332 325 308 304 306 308 309 311 320 323 326 321 324 322 331 320 295 272 263 252 244 240 237 235 231 228 226 223 218 212 209 208 209 210
320 318 314 301 316 314 302 309 319 319 323 331 318 310 309 318 320 315 314 319 319 319 312 310 317 315 310 298 279 262 252 245 241 237 232 229 225 221 214 210 207 205 207 211
320 286 299 304 316 335 339 335 327 324 321 317 308 311 308 304 302 300 301 311 309 308 305 300 297 302 297 290 280 274 265 255 246 238 235 231 225 222 215 210 205 203 204 209
273 280 286 291 307 324 324 314 318 318 320 313 311 305 303 303 301 302 301 299 299 296 295 296 295 288 286 282 271 257 253 252 250 240 236 229 225 221 211 212 210 211 211 214
276 292 300 300 314 326 312 321 321 316 313 315 314 310 312 304 303 303 299 299 297 291 290 290 294 288 281 276 271 261 251 247 241 235 226 223 219 212 209 207 206 207 211 218
281 289 292 298 301 307 320 323 320 314 306 298 300 302 305 305 308 309 306 305 300 294 289 290 287 284 280 275 267 263 259 253 246 240 231 220 214 205 198 193 197 199 205 203
283 291 293 289 302 310 319 316 317 316 317 315 312 309 307 304 306 305 305 306 304 298 289 284 275 278 275 272 270 262 255 252 247 242 232 220 211 201 198 183 175 175 186 191
257 282 287 297 302 307 314 318 318 317 318 316 316 312 313 310 305 305 307 308 307 301 293 292 286 273 276 274 267 260 250 243 241 235 227 218 204 194 193 194 191 187 176 172
296 304 310 304 309 311 313 316 313 309 309 308 308 311 312 306 304 307 309 312 307 303 300 296 287 280 280 275 265 249 241 237 233 228 216 201 193 194 195 195 194 188 184 183
332 330 324 316 314 313 313 308 302 298 300 301 303 308 309 309 308 309 311 311 302 297 296 290 289 282 277 268 252 241 230 224 217 210 206 191 191 193 195 193 189 185 183 182
313 306 306 303 304 305 308 306 303 299 297 301 303 305 305 306 304 307 311 311 309 310 308 286 285 280 265 249 233 224 219 211 203 198 194 192 193 194 190 184 183 182 178 177
320 317 316 307 308 305 302 300 300 302 302 304 305 305 306 302 310 307 307 310 315 319 324 316 300 281 253 232 221 215 205 197 191 192 192 191 189 183 178 177 179 180 179 181
322 322 320 318 317 307 304 306 306 306 310 312 313 307 307 315 306 306 312 311 315 324 336 311 294 234 200 195 205 198 192 189 187 187 187 181 176 169 170 177 178 177 180 180
324 324 324 319 314 317 315 315 312 308 315 317 312 313 311 313 315 319 322 329 338 339 316 246 195 175 180 185 188 184 183 182 184 182 173 167 164 166 171 173 174 175 176 180
326 325 324 324 325 320 320 319 319 321 323 318 317 319 321 327 330 346 3 10 356 345 353 93 142 164 170 180 182 179 177 176 171 165 161 161 164 168 168 169 172 173 176 182
325 324 325 328 326 319 326 333 333 333 326 327 330 338 338 357 9 26 34 26 23 34 71 101 125 151 158 159 163 163 161 160 159 157 156 159 162 164 165 167 171 175 178 184
325 328 329 332 328 331 335 344 346 341 341 356 5 9 25 52 59 53 60 72 84 88 93 101 118 131 142 142 142 142 145 147 146 147 150 153 155 159 163 169 172 174 182 191
331 335 337 336 337 340 346 351 359 10 26 44 57 69 77 81 90 98 97 95 96 91 92 96 104 114 116 119 121 120 126 133 136 141 146 147 151 157 163 167 172 180 192 207
348 344 345 348 351 353 0 9 25 33 53 60 63 66 69 76 84 86 86 88 93 93 94 97 101 104 105 107 113 119 123 125 129 132 135 139 146 154 162 170 181 195 210 225
10 10 10 16 18 19 26 37 50 49 57 72 75 75 77 80 83 88 92 95 93 91 90 89 90 93 98 104 108 111 115 117 119 123 130 137 146 159 172 186 200 213 228 243